SCP
0 0 0 0 0 0 0 0 0 0 0 0 0 0 0 -0 0 0 0 0 0 0 0 0 0 0 0 0 0 0 0 0 0 0 0 0 0 -0 0 0 0 0 0 0
0 0 0 0 0 0 0 0 0 0 0 0 0 -0 0 0 0 0 0 0 0 0 0 0 0 0 0 0 0 0 0 0 0 0 0 0 0 -0 -0 0 0 0 0 0
0 0 0 0 0 0 0 0 0 0 0 0 0 0 0 0 0 0 0 0 0 0 0 0 0 0 0 0 0 0 0 0 0 0 0 0 0 0 -0 0 0 0 0 0
0 0 0 0 0 0 0 0 0 0 0 0 0 0 0 0 0 0 0 0 0 0 0 0 0 0 0 0 0 0 0 0 0 0 0 0 0 0 -0 0 0 0 0 0
0 0 0 0 0 0 0 0 0 0 0 0 0 0 0 0 0 0 0 0 0 0 0 0 0 0 0 0 0 0 0 0 0 0 0 0 0 -0 -0 0 0 0 0 0
0 0 0 0 0 0 0 0 0 0 0 0 0 0 0 0 0 0 0 0 0 0 0 0 0 0 0 0 0 0 0 0 0 0 0 0 0 -0 0 0 0 0 0 0
0 0 0 0 0 0 0 0 0 0 0 0 0 0 0 0 0 0 0 0 0 0 0 0 0 0 0 0 0 0 0 0 0 0 0 0 0 0 0 -0 -0 0 0 0
0 0 0 0 0 0 0 0 0 0 0 0 0 0 0 0 0 0 0 0 -0 -0 0 0 0 0 0 0 0 0 0 0 0 0 0 0 0 0 0 -0 -0 0 0 0
0 0 0 0 0 0 0 0 0 0 0 0 0 0 0 0 0 0 -0 0 -0 0 0 0 0 0 0 0 0 0 0 0 0 0 0 0 0 -0 0 0 -0 0 0 0
0 0 0 0 0 0 0 0 0 0 0 0 0 0 0 0 0 0 -0 0 0 0 0 0 0 0 0 0 0 0 0 0 0 0 0 0 0 0 0 0 0 0 0 0
0 0 0 0 0 0 0 0 0 0 0 0 0 0 0 0 0 0 0 0 0 0 0 0 0 0 0 0 0 0 0 0 0 0 0 0 0 0 0 0 0 0 0 0
0 0 0 0 0 0 0 0 0 0 0 0 0 0 0 -0 0 0 0 0 0 0 0 0 0 0 0 0 0 0 0 0 0 0 0 0 0 0 0 0 0 0 0 0
0 0 0 0 0 0 0 0 0 0 0 0 0 0 0 0 -0 0 0 0 0 0 0 0 0 0 0 0 0 0 0 0 0 0 0 0 0 -0 0 0 0 0 0 0
0 0 0 0 0 0 0 0 0 0 0 0 0 0 0 0 0 0 0 0 0 0 0 0 0 0 0 0 0 0 0 0 0 0 0 -0 -0 0 0 0 0 0 0 0
0 0 0 0 0 0 0 0 0 0 0 0 0 0 0 0 0 0 0 0 0 0 0 0 0 0 0 0 0 0 0 0 0 0 0 -0 -0 0 0 0 0 0 0 0
0 0 0 0 0 0 0 0 0 0 0 0 0 -0 0 0 0 0 0 0 0 0 0 0 0 0 0 0 0 0 0 0 0 0 0 0 -0 -0 -0 0 0 0 0 0
0 0 0 0 0 0 0 0 0 0 0 0 0 0 0 0 0 0 -0 -0 0 0 0 0 0 0 0 0 -0 -0 -0 -0 0 0 0 0 0 -0 -0 0 0 0 0 0
0 0 0 0 0 0 0 0 0 0 0 0 0 0 0 0 0 -0 -0 -0 0 0 0 0 0 0 0 0 0 0 -0 -0 -0 0 0 0 0 0 0 0 0 0 0 0
0 0 0 0 0 0 0 0 0 0 0 0 0 0 0 0 0 0 0 0 0 0 0 0 0 0 0 0 0 0 0 0 0 0 0 -0 -0 -0 0 0 0 0 0 0
0 0 0 0 0 0 0 0 0 0 0 0 0 0 0 0 0 0 0 0 0 0 0 0 0 0 0 0 0 0 0 0 -0 0 0 0 -0 -0 0 0 -0 -0 0 0
0 0 0 0 0 0 0 0 0 0 0 0 0 0 0 0 0 0 0 0 0 0 0 0 0 0 0 0 0 0 0 -0 -0 -0 -0 -0 0 0 0 0 0 -0 -0 -0
0 0 0 0 0 0 0 0 0 0 0 0 0 0 0 0 0 0 0 0 0 0 0 0 0 0 0 0 0 0 -0 0 0 0 0 -0 -0 -0 -0 -0 -0 -0 0 0
0 0 0 0 0 0 0 0 0 0 0 0 0 0 0 0 0 0 0 0 0 0 0 0 0 0 0 0 0 0 0 0 0 0 0 0 0 0 -0 -0 -0 -0 -0 0
0 0 0 0 0 0 0 0 0 0 0 0 0 0 0 0 0 0 0 0 0 0 0 0 0 0 0 0 0 0 0 0 0 0 0 0 0 0 0 0 0 0 0 0
0 0 0 0 0 0 0 0 0 0 0 0 0 0 0 0 0 0 0 0 0 0 0 0 0 0 0 0 0 0 0 0 0 0 0 0 0 0 0 0 0 0 0 0
0 0 0 0 0 0 0 0 0 0 0 0 0 0 0 0 0 0 0 0 0 0 0 0 0 0 0 0 0 0 0 0 0 0 0 0 0 0 0 0 0 0 0 0
Wind_Speed_500mb
2 9 11 6 4 4 2 3 9 7 4 12 18 34 37 33 19 20 24 24 19 17 15 12 14 16 21 23 23 26 30 33 38 37 33 25 19 16 9 8 13 15 16 17
5 11 7 13 7 6 4 4 8 9 0 10 21 42 22 5 5 6 5 12 13 12 11 10 14 18 23 25 26 26 30 32 34 31 27 25 18 6 2 5 7 9 9 14
8 5 12 4 7 8 4 6 2 7 20 6 25 12 2 3 4 2 2 6 10 10 10 11 15 19 23 25 25 25 28 29 28 26 23 18 12 4 3 5 5 6 9 10
3 9 8 7 7 6 5 4 4 6 12 7 10 10 4 1 2 3 4 6 9 11 12 14 17 20 23 24 23 23 27 26 23 20 18 15 5 4 5 5 5 7 7 13
7 13 11 10 4 4 4 3 2 0 3 6 5 7 3 3 9 9 7 4 4 9 11 14 16 17 21 21 20 21 25 23 19 17 14 12 8 3 3 1 4 12 10 15
7 3 1 3 5 6 14 4 2 2 1 3 3 3 5 7 8 8 10 6 7 8 10 13 15 17 18 19 19 19 21 20 16 14 13 9 4 1 5 6 3 6 11 8
3 5 3 4 7 5 4 2 4 4 1 4 5 7 15 7 10 7 11 11 10 10 11 14 14 17 16 18 17 17 18 17 13 12 11 10 3 2 3 4 4 9 15 12
14 9 15 7 4 4 9 4 5 7 4 7 4 11 2 2 4 11 10 11 14 15 13 14 15 14 14 15 14 15 14 14 11 10 10 8 4 3 2 3 4 6 13 9
11 4 2 4 2 4 8 7 3 12 2 5 4 11 17 13 20 21 18 15 16 16 16 15 17 11 13 13 12 14 12 10 10 10 10 9 6 4 2 2 2 2 10 9
13 10 3 3 1 5 3 7 6 1 5 7 6 10 10 6 19 13 12 14 13 14 14 16 17 13 11 10 10 11 9 8 10 11 9 8 8 3 2 4 7 5 3 4
8 7 3 2 15 16 8 6 2 3 1 5 6 7 9 9 13 12 10 9 10 10 12 16 19 16 11 8 8 9 9 7 9 8 9 9 6 3 5 5 8 8 7 6
12 11 9 3 3 5 4 6 13 6 9 1 3 13 7 11 10 9 16 16 11 11 17 16 19 19 13 9 6 4 7 7 9 10 9 9 6 8 12 11 12 15 14 19
16 7 9 2 1 2 11 12 8 9 4 14 8 10 3 9 14 20 24 22 19 30 18 16 20 20 18 11 6 2 4 5 6 12 11 10 7 15 17 16 18 21 23 24
11 4 11 21 9 13 13 18 26 9 7 12 15 16 13 13 12 12 22 34 39 17 16 16 19 21 22 16 9 5 1 3 6 13 12 10 10 20 22 20 21 21 24 28
4 9 6 3 5 3 8 25 33 21 13 14 7 20 21 14 18 30 33 34 24 27 22 22 23 23 27 22 15 11 6 5 11 13 13 13 20 25 27 24 22 24 26 28
1 2 4 2 6 6 5 8 27 14 5 16 18 29 26 40 28 35 37 32 37 29 27 24 22 26 33 28 21 17 11 10 14 16 14 18 25 31 31 35 33 27 30 31
13 11 8 7 2 3 16 20 30 13 13 15 15 28 10 11 13 24 37 35 37 31 23 23 27 24 37 33 27 22 18 16 18 18 19 19 28 35 35 36 37 36 35 34
12 10 4 6 5 20 1 2 31 24 9 32 17 20 18 19 21 41 42 42 34 22 16 19 25 31 45 40 36 30 24 22 22 22 21 22 26 33 36 34 37 38 40 40
7 7 7 9 13 12 3 11 20 22 32 38 39 41 29 16 18 26 13 13 8 18 15 24 23 40 49 43 39 35 30 26 26 25 24 23 24 29 35 32 34 35 35 35
8 7 9 8 12 23 7 17 31 11 15 21 45 26 15 14 6 3 17 8 5 12 14 22 33 49 47 44 41 37 33 30 29 28 27 26 25 25 26 30 29 27 25 24
12 9 28 18 20 11 9 16 33 18 11 17 36 25 26 15 4 10 12 11 4 5 20 25 39 47 45 42 41 38 35 32 31 30 28 26 26 26 25 24 23 22 20 17
24 24 17 10 19 42 19 20 23 14 12 28 33 38 41 19 15 7 7 6 5 6 22 29 41 46 45 41 38 38 36 34 31 30 29 27 25 24 23 23 21 22 22 19
20 18 23 26 13 10 79 41 77 30 40 40 42 40 40 30 21 14 9 8 9 12 22 30 37 41 44 42 38 37 39 35 32 31 29 29 26 24 23 22 20 19 17 15
13 4 8 9 11 15 57 48 56 42 41 41 35 42 43 34 28 20 13 7 12 15 27 32 39 40 40 42 41 38 36 34 32 31 30 28 26 24 23 21 20 18 16 14
11 22 13 14 1 6 26 64 54 49 38 45 40 39 40 32 32 27 18 12 12 15 28 32 35 37 39 39 41 42 40 37 34 32 29 28 27 25 23 21 18 16 14 13
15 14 25 23 30 21 34 80 79 53 53 51 45 41 47 38 37 33 23 16 13 15 23 33 37 37 38 40 41 42 41 39 37 34 31 29 27 25 23 21 19 15 12 11
Wind_Direction_500mb
63 222 220 179 186 300 160 211 274 285 31 304 271 284 293 306 290 273 258 238 222 229 223 238 274 297 306 310 303 300 301 309 316 317 320 325 316 301 274 227 214 215 214 227
163 229 101 101 126 211 214 266 285 278 330 306 309 300 308 302 319 326 65 151 175 185 197 250 284 300 305 307 305 301 303 312 319 321 329 330 331 328 236 177 172 192 194 221
214 108 129 158 165 209 206 253 337 291 318 234 308 259 227 174 285 332 109 135 161 188 215 257 277 293 300 305 304 302 305 318 318 323 333 333 347 44 151 173 160 166 199 218
203 135 148 180 211 231 241 98 108 320 332 308 8 298 178 334 102 139 114 195 214 216 243 265 277 293 299 304 304 305 310 321 322 326 336 336 353 160 204 178 156 162 185 198
156 159 163 204 174 201 91 92 50 321 279 309 165 253 178 232 175 173 139 139 164 201 236 262 275 290 299 306 305 311 313 323 324 328 337 337 340 4 314 166 171 189 180 190
84 69 40 64 96 69 132 124 132 121 124 244 115 315 236 191 176 169 172 187 208 215 246 262 274 294 303 309 310 317 320 323 329 333 336 349 353 15 15 319 319 194 186 168
123 162 136 207 140 106 157 190 302 313 234 260 125 254 270 203 208 194 172 189 223 228 246 268 281 296 302 308 315 322 324 323 334 332 342 347 325 14 359 316 263 214 191 185
159 231 180 167 277 173 171 222 188 242 266 308 149 239 230 239 248 227 215 208 225 235 239 263 277 290 298 308 321 328 327 325 331 333 348 346 336 324 343 326 314 222 197 213
143 132 52 45 7 319 165 198 70 105 77 273 260 261 261 260 253 241 228 214 229 234 238 254 269 281 299 310 323 334 330 329 328 333 330 338 321 273 260 81 94 99 195 245
192 104 4 68 141 53 285 134 118 44 197 253 270 276 265 227 216 206 210 207 213 225 237 248 264 275 293 307 322 333 330 334 329 332 347 13 355 274 283 66 62 105 158 315
135 104 129 200 202 178 155 189 147 96 288 219 288 253 202 234 211 195 178 192 201 235 259 255 255 265 274 292 313 336 338 328 326 24 1 13 28 73 119 79 73 86 84 23
180 107 140 192 28 337 317 210 186 192 188 48 326 275 157 253 261 254 245 245 240 273 288 262 246 255 255 263 287 325 330 335 353 60 31 27 69 111 117 98 90 94 70 56
183 174 114 77 163 288 226 191 186 102 101 196 163 253 111 257 247 241 247 251 270 309 282 256 239 242 238 235 239 261 325 339 12 67 44 39 89 120 115 102 90 100 80 67
128 125 177 204 171 131 186 186 184 173 158 171 224 262 256 265 255 244 245 282 295 289 276 267 240 231 223 218 203 199 250 36 80 73 50 57 110 119 111 94 83 104 94 90
168 217 133 356 337 265 184 172 177 195 189 187 228 219 255 237 250 269 287 291 283 292 280 274 236 227 209 206 188 177 168 113 100 89 59 83 115 119 117 102 91 99 84 87
217 174 129 166 341 5 268 187 191 206 256 287 275 275 242 265 263 274 277 281 291 291 285 262 231 219 201 195 179 164 163 135 123 104 87 100 120 121 115 110 105 110 100 91
177 150 156 217 3 8 265 198 188 187 207 193 209 242 180 236 237 264 280 289 291 290 283 255 222 217 190 183 172 160 157 147 132 121 104 104 125 126 117 114 119 122 114 108
169 166 146 134 166 228 275 224 189 195 215 212 271 258 233 251 271 285 284 279 283 282 268 215 202 191 177 175 169 165 157 151 138 129 121 113 125 135 120 116 123 127 128 128
215 168 168 185 202 304 183 189 164 181 246 209 222 249 260 257 294 276 251 185 234 291 265 186 185 179 174 172 170 165 160 153 147 140 131 122 125 137 138 131 126 124 127 126
186 275 232 154 218 231 183 188 172 154 258 191 198 227 185 154 207 159 190 200 292 312 201 185 170 170 174 171 170 169 164 155 150 146 141 135 127 128 137 156 147 141 135 132
172 207 221 213 239 271 241 150 155 168 243 171 190 192 169 183 195 150 232 253 221 259 191 180 171 171 172 172 171 170 169 160 156 153 150 146 142 138 135 137 146 154 158 162
176 179 198 207 223 244 140 124 182 196 171 163 171 176 185 174 164 163 207 172 124 190 193 179 175 173 173 174 173 172 168 171 165 160 157 156 155 153 151 148 144 141 141 142
206 200 197 197 224 121 168 180 199 183 168 175 170 175 181 175 173 170 181 193 181 160 189 179 179 182 177 174 174 172 175 174 172 170 168 166 164 163 163 164 165 166 168 171
229 211 209 131 191 181 191 198 201 186 184 177 176 174 177 175 174 174 175 161 172 165 186 186 179 182 183 180 174 170 183 179 178 177 176 176 176 175 175 176 176 177 181 187
181 148 178 251 344 74 206 207 205 202 194 180 175 185 184 185 185 186 180 166 179 169 181 189 188 184 179 181 180 183 183 186 186 184 183 181 182 183 183 184 188 190 192 197
185 178 200 224 164 183 199 204 209 203 201 196 196 196 198 198 194 193 191 187 191 178 169 186 185 183 187 181 185 191 191 189 191 194 192 189 189 189 188 186 184 185 191 193
Wind_Speed_850mb
2 9 11 6 4 4 2 3 9 7 4 12 18 34 37 33 19 20 24 24 19 17 15 12 14 16 21 23 23 26 30 33 38 37 33 25 19 16 9 8 13 15 16 17
5 11 7 13 7 6 4 4 8 9 0 10 21 42 22 5 5 6 5 12 13 12 11 10 14 18 23 25 26 26 30 32 34 31 27 25 18 6 2 5 7 9 9 14
8 5 12 4 7 8 4 6 2 7 20 6 25 12 2 3 4 2 2 6 10 10 10 11 15 19 23 25 25 25 28 29 28 26 23 18 12 4 3 5 5 6 9 10
3 9 8 7 7 6 5 4 4 6 12 7 10 10 4 1 2 3 4 6 9 11 12 14 17 20 23 24 23 23 27 26 23 20 18 15 5 4 5 5 5 7 7 13
7 13 11 10 4 4 4 3 2 0 3 6 5 7 3 3 9 9 7 4 4 9 11 14 16 17 21 21 20 21 25 23 19 17 14 12 8 3 3 1 4 12 10 15
7 3 1 3 5 6 14 4 2 2 1 3 3 3 5 7 8 8 10 6 7 8 10 13 15 17 18 19 19 19 21 20 16 14 13 9 4 1 5 6 3 6 11 8
3 5 3 4 7 5 4 2 4 4 1 4 5 7 15 7 10 7 11 11 10 10 11 14 14 17 16 18 17 17 18 17 13 12 11 10 3 2 3 4 4 9 15 12
14 9 15 7 4 4 9 4 5 7 4 7 4 11 2 2 4 11 10 11 14 15 13 14 15 14 14 15 14 15 14 14 11 10 10 8 4 3 2 3 4 6 13 9
11 4 2 4 2 4 8 7 3 12 2 5 4 11 17 13 20 21 18 15 16 16 16 15 17 11 13 13 12 14 12 10 10 10 10 9 6 4 2 2 2 2 10 9
13 10 3 3 1 5 3 7 6 1 5 7 6 10 10 6 19 13 12 14 13 14 14 16 17 13 11 10 10 11 9 8 10 11 9 8 8 3 2 4 7 5 3 4
8 7 3 2 15 16 8 6 2 3 1 5 6 7 9 9 13 12 10 9 10 10 12 16 19 16 11 8 8 9 9 7 9 8 9 9 6 3 5 5 8 8 7 6
12 11 9 3 3 5 4 6 13 6 9 1 3 13 7 11 10 9 16 16 11 11 17 16 19 19 13 9 6 4 7 7 9 10 9 9 6 8 12 11 12 15 14 19
16 7 9 2 1 2 11 12 8 9 4 14 8 10 3 9 14 20 24 22 19 30 18 16 20 20 18 11 6 2 4 5 6 12 11 10 7 15 17 16 18 21 23 24
11 4 11 21 9 13 13 18 26 9 7 12 15 16 13 13 12 12 22 34 39 17 16 16 19 21 22 16 9 5 1 3 6 13 12 10 10 20 22 20 21 21 24 28
4 9 6 3 5 3 8 25 33 21 13 14 7 20 21 14 18 30 33 34 24 27 22 22 23 23 27 22 15 11 6 5 11 13 13 13 20 25 27 24 22 24 26 28
1 2 4 2 6 6 5 8 27 14 5 16 18 29 26 40 28 35 37 32 37 29 27 24 22 26 33 28 21 17 11 10 14 16 14 18 25 31 31 35 33 27 30 31
13 11 8 7 2 3 16 20 30 13 13 15 15 28 10 11 13 24 37 35 37 31 23 23 27 24 37 33 27 22 18 16 18 18 19 19 28 35 35 36 37 36 35 34
12 10 4 6 5 20 1 2 31 24 9 32 17 20 18 19 21 41 42 42 34 22 16 19 25 31 45 40 36 30 24 22 22 22 21 22 26 33 36 34 37 38 40 40
7 7 7 9 13 12 3 11 20 22 32 38 39 41 29 16 18 26 13 13 8 18 15 24 23 40 49 43 39 35 30 26 26 25 24 23 24 29 35 32 34 35 35 35
8 7 9 8 12 23 7 17 31 11 15 21 45 26 15 14 6 3 17 8 5 12 14 22 33 49 47 44 41 37 33 30 29 28 27 26 25 25 26 30 29 27 25 24
12 9 28 18 20 11 9 16 33 18 11 17 36 25 26 15 4 10 12 11 4 5 20 25 39 47 45 42 41 38 35 32 31 30 28 26 26 26 25 24 23 22 20 17
24 24 17 10 19 42 19 20 23 14 12 28 33 38 41 19 15 7 7 6 5 6 22 29 41 46 45 41 38 38 36 34 31 30 29 27 25 24 23 23 21 22 22 19
20 18 23 26 13 10 79 41 77 30 40 40 42 40 40 30 21 14 9 8 9 12 22 30 37 41 44 42 38 37 39 35 32 31 29 29 26 24 23 22 20 19 17 15
13 4 8 9 11 15 57 48 56 42 41 41 35 42 43 34 28 20 13 7 12 15 27 32 39 40 40 42 41 38 36 34 32 31 30 28 26 24 23 21 20 18 16 14
11 22 13 14 1 6 26 64 54 49 38 45 40 39 40 32 32 27 18 12 12 15 28 32 35 37 39 39 41 42 40 37 34 32 29 28 27 25 23 21 18 16 14 13
15 14 25 23 30 21 34 80 79 53 53 51 45 41 47 38 37 33 23 16 13 15 23 33 37 37 38 40 41 42 41 39 37 34 31 29 27 25 23 21 19 15 12 11
Wind_Direction_850mb
63 222 220 179 186 300 160 211 274 285 31 304 271 284 293 306 290 273 258 238 222 229 223 238 274 297 306 310 303 300 301 309 316 317 320 325 316 301 274 227 214 215 214 227
163 229 101 101 126 211 214 266 285 278 330 306 309 300 308 302 319 326 65 151 175 185 197 250 284 300 305 307 305 301 303 312 319 321 329 330 331 328 236 177 172 192 194 221
214 108 129 158 165 209 206 253 337 291 318 234 308 259 227 174 285 332 109 135 161 188 215 257 277 293 300 305 304 302 305 318 318 323 333 333 347 44 151 173 160 166 199 218
203 135 148 180 211 231 241 98 108 320 332 308 8 298 178 334 102 139 114 195 214 216 243 265 277 293 299 304 304 305 310 321 322 326 336 336 353 160 204 178 156 162 185 198
156 159 163 204 174 201 91 92 50 321 279 309 165 253 178 232 175 173 139 139 164 201 236 262 275 290 299 306 305 311 313 323 324 328 337 337 340 4 314 166 171 189 180 190
84 69 40 64 96 69 132 124 132 121 124 244 115 315 236 191 176 169 172 187 208 215 246 262 274 294 303 309 310 317 320 323 329 333 336 349 353 15 15 319 319 194 186 168
123 162 136 207 140 106 157 190 302 313 234 260 125 254 270 203 208 194 172 189 223 228 246 268 281 296 302 308 315 322 324 323 334 332 342 347 325 14 359 316 263 214 191 185
159 231 180 167 277 173 171 222 188 242 266 308 149 239 230 239 248 227 215 208 225 235 239 263 277 290 298 308 321 328 327 325 331 333 348 346 336 324 343 326 314 222 197 213
143 132 52 45 7 319 165 198 70 105 77 273 260 261 261 260 253 241 228 214 229 234 238 254 269 281 299 310 323 334 330 329 328 333 330 338 321 273 260 81 94 99 195 245
192 104 4 68 141 53 285 134 118 44 197 253 270 276 265 227 216 206 210 207 213 225 237 248 264 275 293 307 322 333 330 334 329 332 347 13 355 274 283 66 62 105 158 315
135 104 129 200 202 178 155 189 147 96 288 219 288 253 202 234 211 195 178 192 201 235 259 255 255 265 274 292 313 336 338 328 326 24 1 13 28 73 119 79 73 86 84 23
180 107 140 192 28 337 317 210 186 192 188 48 326 275 157 253 261 254 245 245 240 273 288 262 246 255 255 263 287 325 330 335 353 60 31 27 69 111 117 98 90 94 70 56
183 174 114 77 163 288 226 191 186 102 101 196 163 253 111 257 247 241 247 251 270 309 282 256 239 242 238 235 239 261 325 339 12 67 44 39 89 120 115 102 90 100 80 67
128 125 177 204 171 131 186 186 184 173 158 171 224 262 256 265 255 244 245 282 295 289 276 267 240 231 223 218 203 199 250 36 80 73 50 57 110 119 111 94 83 104 94 90
168 217 133 356 337 265 184 172 177 195 189 187 228 219 255 237 250 269 287 291 283 292 280 274 236 227 209 206 188 177 168 113 100 89 59 83 115 119 117 102 91 99 84 87
217 174 129 166 341 5 268 187 191 206 256 287 275 275 242 265 263 274 277 281 291 291 285 262 231 219 201 195 179 164 163 135 123 104 87 100 120 121 115 110 105 110 100 91
177 150 156 217 3 8 265 198 188 187 207 193 209 242 180 236 237 264 280 289 291 290 283 255 222 217 190 183 172 160 157 147 132 121 104 104 125 126 117 114 119 122 114 108
169 166 146 134 166 228 275 224 189 195 215 212 271 258 233 251 271 285 284 279 283 282 268 215 202 191 177 175 169 165 157 151 138 129 121 113 125 135 120 116 123 127 128 128
215 168 168 185 202 304 183 189 164 181 246 209 222 249 260 257 294 276 251 185 234 291 265 186 185 179 174 172 170 165 160 153 147 140 131 122 125 137 138 131 126 124 127 126
186 275 232 154 218 231 183 188 172 154 258 191 198 227 185 154 207 159 190 200 292 312 201 185 170 170 174 171 170 169 164 155 150 146 141 135 127 128 137 156 147 141 135 132
172 207 221 213 239 271 241 150 155 168 243 171 190 192 169 183 195 150 232 253 221 259 191 180 171 171 172 172 171 170 169 160 156 153 150 146 142 138 135 137 146 154 158 162
176 179 198 207 223 244 140 124 182 196 171 163 171 176 185 174 164 163 207 172 124 190 193 179 175 173 173 174 173 172 168 171 165 160 157 156 155 153 151 148 144 141 141 142
206 200 197 197 224 121 168 180 199 183 168 175 170 175 181 175 173 170 181 193 181 160 189 179 179 182 177 174 174 172 175 174 172 170 168 166 164 163 163 164 165 166 168 171
229 211 209 131 191 181 191 198 201 186 184 177 176 174 177 175 174 174 175 161 172 165 186 186 179 182 183 180 174 170 183 179 178 177 176 176 176 175 175 176 176 177 181 187
181 148 178 251 344 74 206 207 205 202 194 180 175 185 184 185 185 186 180 166 179 169 181 189 188 184 179 181 180 183 183 186 186 184 183 181 182 183 183 184 188 190 192 197
185 178 200 224 164 183 199 204 209 203 201 196 196 196 198 198 194 193 191 187 191 178 169 186 185 183 187 181 185 191 191 189 191 194 192 189 189 189 188 186 184 185 191 193